Torna al catalogo

SERT3

AttivoScienzaSSO
NORAD 68499·PAYLOAD·🇺🇸 United States

Lanciato Mar 30, 2026 da Vandenberg Space Force Base

Loading…

Prossimi Passaggi (prossime 24 ore)

TLE

AggiornatoSource: Space-Track

Epoca: Sep 14, 2026, 14:47 UTC

1 68499U 26067CM  26257.61606347  .00001249  00000-0  12944-3 0  9991
2 68499  97.7671 214.4380 0002890  95.9518 264.2030 14.91772552 25055

Traccia SERT3 in tempo reale con AllMySat

Download on the App Store